Satellite-Ground Cal/Val Site Overpasses Predictions

Prediction of Satellite NPP Overpassing Cal/Val Site: Antarctic Dome C

Ground Cal/Val Site Location: Latitude: -75.10, Longitude: 123.35; Satellite-Ground Site NADIR distance within 100 km.

Table of predicted overpasses for the next 14.0 days since TLE Epoch: 9/1/2012
Interval Starting Time Ending Time Minimum Distance Time Minimum Distance (km)
1 09/02/2012 14:40:25 09/02/2012 14:40:50 09/02/2012 14:40:38 52.39
2 09/03/2012 07:42:06 09/03/2012 07:42:26 09/03/2012 07:42:16 71.83
3 09/04/2012 07:23:13 09/04/2012 07:23:40 09/04/2012 07:23:26 36.22
4 09/06/2012 15:05:38 09/06/2012 15:05:47 09/06/2012 15:05:42 94.44
5 09/07/2012 14:46:37 09/07/2012 14:47:06 09/07/2012 14:46:51 16.97
6 09/09/2012 07:29:25 09/09/2012 07:29:55 09/09/2012 07:29:40 0.55
7 09/12/2012 14:52:51 09/12/2012 14:53:20 09/12/2012 14:53:06 19.74
8 09/13/2012 14:34:08 09/13/2012 14:34:22 09/13/2012 14:34:15 87.47
9 09/14/2012 07:35:40 09/14/2012 07:36:08 09/14/2012 07:35:54 36.36
